Weather History for Mcnabs Island, NS

Change the Weather History Date:

Thursday, December 8, 2011

  Actual Average Record
Temperature  
Mean Temperature 46 °F -  
Max Temperature 56 °F - - ()
Min Temperature 36 °F - - ()
Degree Days  
Heating Degree Days 19    
Moisture  
Dew Point 42 °F    
Average Humidity 82    
Maximum Humidity 99    
Minimum Humidity 56    
Precipitation  
Precipitation 0.00 in - - ()
Sea Level Pressure  
Sea Level Pressure 29.53 in    
Wind  
Wind Speed 25 mph ()    
Max Wind Speed 53 mph    
Max Gust Speed 67 mph    
T = Trace of Precipitation, MM = Missing Value Source: Averaged Metar Reports

Daily Weather History Graph

Daily Weather History Graph

Search for Another Location

Airport:

Trip Planner

Search our weather history database for the weather conditions in past years. The results will help you decide how hot, cold, wet, or windy it might be!

Date:

Astronomy

Dec. 08, 2011 Rise Set
Actual Time 7:37 AM AST 4:33 PM AST
Civil Twilight 7:04 AM AST 5:07 PM AST
Nautical Twilight 6:27 AM AST 5:43 PM AST
Astronomical Twilight 5:52 AM AST 6:19 PM AST
Moon 3:10 PM AST (12/8) 5:44 AM AST (12/8)
Length of Visible Light 10h 02m
Length of Day
8h 56m
Waxing Gibbous, 96% of the Moon is Illuminated
Dec 8
Waxing Gibbous
Dec 10
Full
Dec 17
Last Quarter
Dec 24
New
Jan 1
First Quarter

Hourly Weather History & Observations

Time (AST) Temp. Windchill Dew Point Humidity Pressure Visibility Wind Dir Wind Speed Gust Speed Precip Events Conditions
12:00 AM 50.4 °F - 50.0 °F 99% 29.65 in - South 16.1 mph - N/A   Unknown
1:00 AM 51.3 °F - 50.9 °F 99% 29.61 in - SSW 6.9 mph - N/A   Unknown
2:00 AM 53.2 °F - 52.9 °F 99% 29.56 in - South 20.7 mph - N/A   Unknown
3:00 AM 53.6 °F - 53.2 °F 99% 29.53 in - South 29.9 mph 38.0 mph N/A   Unknown
4:00 AM 54.1 °F - 53.8 °F 99% 29.49 in - South 21.9 mph 28.8 mph N/A   Unknown
5:00 AM 55.2 °F - 54.9 °F 99% 29.43 in - South 31.1 mph 39.1 mph N/A   Unknown
6:00 AM 54.3 °F - 53.8 °F 98% 29.39 in - South 29.9 mph 36.8 mph N/A   Unknown
7:00 AM 54.3 °F - 54.0 °F 99% 29.31 in - South 28.8 mph 35.7 mph N/A   Unknown
8:00 AM 54.3 °F - 53.8 °F 98% 29.21 in - South 36.8 mph - N/A   Unknown
9:00 AM 56.5 °F - 55.8 °F 97% 29.14 in - South 44.9 mph 55.2 mph N/A   Unknown
10:00 AM 55.2 °F - 53.4 °F 94% 29.05 in - South 43.7 mph 51.8 mph N/A   Unknown
11:00 AM 53.8 °F - 49.5 °F 85% 28.99 in - SSW 52.9 mph 66.7 mph N/A   Unknown
12:00 PM 51.3 °F - 44.2 °F 77% 29.07 in - WSW 50.6 mph 66.7 mph N/A   Unknown
1:00 PM 45.7 °F 34.1 °F 37.8 °F 74% 29.27 in - WNW 47.2 mph 63.3 mph N/A   Unknown
2:00 PM 45.9 °F 35.4 °F 38.3 °F 75% 29.42 in - West 38.0 mph 47.2 mph N/A   Unknown
3:00 PM 43.9 °F 33.2 °F 36.1 °F 74% 29.57 in - West 33.4 mph 42.6 mph N/A   Unknown
4:00 PM 42.6 °F 31.7 °F 34.0 °F 71% 29.61 in - WNW 32.2 mph 40.3 mph N/A   Unknown
5:00 PM 41.0 °F 30.2 °F 31.8 °F 70% 29.72 in - West 27.6 mph 36.8 mph N/A   Unknown
6:00 PM 39.4 °F 28.1 °F 28.2 °F 64% 29.79 in - West 27.6 mph 36.8 mph N/A   Unknown
7:00 PM 38.3 °F 27.1 °F 26.8 °F 63% 29.86 in - West 25.3 mph 33.4 mph N/A   Unknown
8:00 PM 37.9 °F 26.1 °F 26.6 °F 64% 29.95 in - West 27.6 mph 38.0 mph N/A   Unknown
9:00 PM 37.6 °F 24.8 °F 24.6 °F 60% 29.97 in - WNW 32.2 mph - N/A   Unknown
10:00 PM 36.5 °F 25.2 °F 22.3 °F 56% 30.05 in - West 23.0 mph 32.2 mph N/A   Unknown
11:00 PM 36.0 °F 26.0 °F 23.0 °F 59% 30.11 in - WNW 17.3 mph 24.2 mph N/A   Unknown